Location: *
(49.9853°N, 3.5569°E)
Time: 14:02:00
(UTC+00:00)

DMSP B5D2-2 - Pass Details

Date: 22 September 2019
Orbit: 791 x 805 km, 98.4° (Epoch: 16 October)

Event Time Altitude Azimuth Distance (km) Brightness Sun altitude
Rises 19:48:49 0° 19° (NNE) 3,334 7.4 -20.1°
Reaches altitude 10° 19:51:18 10° 27° (NNE) 2,399 6.6 -20.5°
Enters shadow 19:56:01 41° 89° (E) 1,162 4.5 -21.1°
